Temp
16 17 18 19 20 20 20 20 21 22 22 22 23 23 24 25 27 26 34 32 32 31 30 34 35 37 37 38 37 37 35 35 34 34 33 33 33 34 35 34 35 35 35 34 31
16 17 19 19 20 20 21 21 21 22 22 22 23 24 24 25 25 33 31 31 31 31 32 36 38 38 39 38 38 37 36 35 36 36 34 34 34 34 34 34 34 34 34 32 31
16 17 18 19 20 20 21 21 21 22 22 23 23 24 25 25 31 35 31 31 31 31 32 35 36 39 39 39 38 37 35 36 36 36 36 34 34 35 35 28 32 29 34 33 32
17 17 18 19 20 20 21 21 22 22 22 23 23 24 25 25 34 33 31 31 31 31 34 36 38 38 38 38 38 36 37 36 36 36 36 35 35 34 35 34 35 35 35 33 33
17 17 17 19 20 20 21 21 22 22 22 23 23 24 25 33 35 31 31 32 31 32 35 37 37 38 38 38 38 37 37 37 37 36 36 36 35 35 35 35 35 35 34 33 33
16 17 17 19 20 20 21 21 22 22 22 23 23 24 26 33 33 32 32 31 34 34 36 37 38 38 37 38 37 37 37 37 38 37 37 36 36 35 35 36 35 34 34 34 33
17 17 18 18 19 20 21 21 22 22 22 23 23 22 31 35 33 32 33 34 35 35 37 37 37 37 38 38 38 38 37 37 37 37 37 37 35 35 36 36 35 35 34 34 34
16 16 17 17 19 20 21 21 22 22 22 23 23 23 33 33 32 32 33 34 34 35 35 36 36 37 37 38 38 37 37 36 37 37 37 37 36 36 36 36 35 36 35 34 34
14 14 16 17 19 20 21 21 22 22 22 23 23 28 35 31 33 34 34 35 35 35 35 35 36 37 38 37 38 38 37 36 36 37 37 37 36 38 37 36 36 36 35 34 34
12 13 15 17 19 20 21 21 21 22 22 22 26 30 34 35 35 35 34 35 36 36 36 36 37 37 38 38 37 36 36 37 36 37 37 37 37 39 38 37 37 37 36 35 34
11 11 14 17 19 20 19 20 26 28 28 34 35 35 35 35 34 35 35 35 36 36 35 37 36 36 38 39 37 36 36 36 37 38 36 37 37 38 39 39 37 37 37 36 35
10 11 12 15 19 19 19 29 32 31 34 34 34 34 34 35 35 36 35 35 35 35 36 37 35 38 38 37 36 36 36 37 38 38 37 37 37 39 39 39 39 38 38 37 37
10 10 11 14 18 18 24 30 29 30 34 34 35 35 35 35 36 36 36 36 36 35 37 36 38 37 36 36 36 37 37 37 36 37 38 38 38 38 39 39 39 39 39 38 38
10 10 12 16 16 26 27 28 28 29 34 34 34 35 35 36 36 37 36 37 36 36 36 37 38 36 36 36 37 37 38 37 36 36 36 39 36 37 38 39 39 40 39 39 38
12 13 15 16 19 28 29 28 29 30 34 36 36 35 37 36 37 36 36 36 36 36 36 37 36 36 36 37 38 37 37 37 36 36 37 39 38 36 38 38 39 40 40 40 39
16 16 17 16 18 27 27 28 30 32 34 35 36 35 35 36 37 36 36 37 37 36 37 37 38 37 37 38 37 38 37 37 38 38 37 38 38 38 38 38 39 39 40 40 39
19 18 18 20 30 27 28 31 33 34 38 35 36 36 36 36 36 36 35 35 36 35 36 37 37 38 37 37 38 37 37 36 36 37 37 38 37 39 38 39 39 39 39 39 39
21 20 20 21 25 26 29 33 33 37 37 38 38 37 36 37 37 37 36 36 37 37 37 37 36 37 38 37 38 38 38 37 35 36 37 38 37 38 39 40 40 40 39 39 39
20 20 24 26 24 26 32 34 36 37 38 37 37 36 37 37 37 37 36 37 37 37 35 36 37 38 38 38 38 38 36 39 37 39 37 38 39 40 40 40 40 39 39 38 38
21 29 30 27 27 28 32 32 36 36 36 37 36 37 36 37 36 36 36 36 36 35 36 37 35 38 38 38 38 38 39 36 38 35 34 36 36 38 38 39 39 39 38 38 38
22 33 29 28 28 32 34 36 35 36 36 37 37 37 37 36 37 37 36 35 35 36 36 37 36 37 37 37 37 37 37 37 38 37 36 36 36 37 37 38 37 37 37 36 36
30 33 30 29 31 34 36 35 26 36 36 36 37 37 37 36 36 36 35 35 34 35 34 36 35 35 36 39 39 38 37 37 36 35 37 36 36 39 38 37 37 35 35 34 34
32 33 31 31 33 35 34 34 35 35 35 36 35 36 36 35 34 35 34 33 33 34 33 34 34 34 35 38 39 37 37 37 37 37 35 35 36 38 36 36 35 33 33 33 32
33 33 33 33 34 35 34 34 34 34 34 35 34 35 35 34 35 34 34 33 32 33 26 29 34 34 34 35 36 34 35 35 36 35 35 36 36 36 32 33 34 33 32 32 31
33 33 33 33 34 34 34 34 34 33 34 34 33 34 34 33 34 33 34 34 34 24 29 32 32 33 34 34 34 34 34 34 34 34 33 34 34 35 36 33 32 32 31 30 30
29 30 33 33 32 33 28 33 33 33 33 33 33 33 33 32 33 32 32 32 32 32 31 33 31 31 31 33 33 33 33 34 34 34 34 34 33 34 34 32 31 30 29 29 28
26 28 30 25 33 33 33 33 33 32 31 32 32 31 32 32 31 32 32 33 32 31 31 31 31 30 30 33 32 31 33 33 33 33 32 31 31 30 30 29 29 28 28 27 27
Height
805 803 801 800 799 797 796 794 793 792 790 788 787 785 782 779 776 774 766 769 768 767 766 762 757 751 746 741 743 739 762 773 770 768 773 763 763 757 752 758 752 751 752 758 772
805 802 800 799 798 796 795 794 793 791 790 788 786 784 782 779 775 768 768 768 768 767 765 757 749 746 739 741 743 745 764 772 755 752 763 762 759 759 760 757 757 755 759 767 774
804 802 800 798 797 795 794 793 792 791 790 788 786 784 782 779 772 759 766 768 767 767 766 760 753 744 742 736 743 749 770 756 753 753 751 759 761 754 755 781 763 771 759 768 772
803 801 799 797 796 795 793 792 791 790 789 788 786 784 782 781 779 764 766 767 767 767 765 756 749 746 748 750 743 760 754 754 753 750 753 758 755 758 755 756 751 750 755 766 770
803 801 799 796 795 793 792 791 790 790 788 787 786 784 782 773 762 765 766 765 766 767 761 753 751 750 753 748 746 758 755 749 747 748 749 750 757 758 755 749 751 752 758 764 768
801 799 797 795 793 792 791 790 789 789 788 787 786 784 782 777 764 765 767 767 765 765 757 755 750 751 751 750 753 750 751 749 745 745 744 753 751 752 750 746 751 754 758 762 765
799 797 795 793 792 791 790 789 788 788 787 786 786 784 777 764 765 766 766 764 763 762 756 755 755 753 747 751 745 747 758 750 751 748 748 742 756 756 743 744 751 753 756 759 764
797 795 793 791 790 789 788 788 787 787 786 786 785 785 767 763 765 766 764 764 764 763 761 759 758 753 751 745 747 756 752 767 754 750 746 745 763 746 741 746 749 748 753 758 761
795 793 791 789 788 787 787 786 786 786 786 785 785 780 761 763 763 762 762 760 761 761 762 763 758 753 747 760 756 752 767 767 764 747 751 750 762 738 736 742 744 746 749 755 759
792 790 788 786 786 786 786 786 785 785 785 786 783 779 760 756 756 759 761 760 758 757 761 761 757 760 755 756 774 769 769 764 768 753 751 752 751 733 728 736 739 739 742 750 755
789 787 785 784 784 784 786 786 785 781 778 758 755 756 753 755 759 758 759 758 756 758 770 756 768 771 753 743 751 764 769 769 754 746 757 755 750 736 724 725 735 736 737 740 747
786 784 782 781 781 783 784 775 764 768 762 758 757 757 755 752 757 753 757 760 760 769 756 760 774 750 742 751 763 764 768 765 749 744 749 746 748 728 720 721 722 729 730 732 736
783 781 779 778 779 781 779 771 771 769 761 756 752 752 753 754 748 750 754 753 758 764 758 768 750 748 756 761 767 762 765 758 765 752 736 742 742 736 723 721 719 718 718 721 727
780 778 777 777 782 774 774 771 772 771 763 764 757 750 751 748 753 743 748 749 756 762 756 757 742 755 761 764 756 764 739 752 762 765 773 733 771 744 732 728 719 712 714 715 720
776 775 775 775 776 771 770 770 771 770 785 745 748 746 741 749 744 750 746 748 758 756 758 756 756 761 765 756 746 757 744 752 755 760 752 735 751 749 728 733 723 710 704 706 713
773 772 774 778 776 770 771 770 769 780 779 754 744 752 753 747 743 744 750 746 740 753 751 751 736 745 747 742 743 742 751 748 742 740 762 742 749 741 739 735 724 713 708 706 710
770 771 772 774 766 770 770 768 774 773 730 755 750 745 746 750 749 752 758 762 760 770 764 747 744 735 739 754 742 750 758 767 769 767 762 736 752 735 726 722 716 717 712 709 709
769 770 771 771 772 771 769 766 778 738 740 725 734 740 749 743 744 746 752 757 744 749 754 755 767 742 733 748 746 746 747 763 787 771 763 733 759 740 716 712 709 708 708 710 711
771 771 772 769 770 771 764 769 749 740 728 737 737 749 748 742 743 748 751 746 743 743 765 758 756 733 733 730 737 745 761 729 751 738 754 737 727 712 711 712 708 712 712 714 713
771 764 763 768 770 769 763 761 741 734 735 732 750 737 752 748 753 750 752 750 752 750 745 748 769 734 732 732 731 740 728 761 746 783 786 753 758 740 725 719 715 717 718 720 716
770 753 763 767 769 762 760 742 743 736 737 738 737 743 736 746 743 745 749 754 753 750 747 746 754 750 736 744 743 743 750 745 740 746 769 770 758 725 727 719 725 724 727 727 725
759 752 761 764 766 748 744 742 755 738 735 736 733 733 741 746 749 752 756 755 755 752 761 746 758 764 748 722 716 730 744 744 760 763 747 756 754 705 714 719 724 734 734 735 734
752 752 760 760 761 750 744 747 742 743 743 743 746 741 742 750 766 757 756 758 760 758 765 757 763 772 757 731 717 738 737 733 739 739 758 767 751 709 722 730 731 736 739 738 740
750 755 753 753 742 740 749 750 754 746 748 744 748 744 750 755 751 760 760 758 763 762 777 774 765 770 776 758 746 759 751 745 747 761 754 749 738 725 743 749 739 740 741 743 745
751 747 747 753 749 744 743 746 751 758 749 747 756 754 758 766 759 763 757 758 756 779 774 767 775 764 758 754 753 756 757 753 758 754 765 754 750 736 728 740 745 744 746 748 751
767 764 751 750 752 752 763 755 753 754 757 755 762 759 762 769 764 772 766 766 770 762 769 759 780 774 775 760 756 760 753 750 750 750 750 748 751 734 733 739 747 751 751 756 757
778 771 765 768 751 753 749 753 756 760 762 759 763 767 765 765 765 764 761 759 761 770 773 774 773 778 781 757 761 774 750 748 746 748 749 763 756 753 754 756 756 759 758 762 762
Wind_Speed
11 10 9 8 8 8 8 8 8 8 9 9 11 12 14 16 14 7 8 4 2 5 6 9 8 6 10 5 2 6 3 9 10 10 8 6 4 5 4 3 5 3 9 17 21
12 12 10 9 9 9 8 8 8 8 8 9 10 12 14 17 14 14 1 3 4 5 9 8 8 8 4 5 2 6 9 7 9 11 9 5 3 4 4 8 2 10 10 18 21
13 12 10 9 9 9 8 8 8 7 8 8 10 11 12 14 12 8 4 6 5 6 10 11 12 10 2 3 5 6 6 4 9 10 7 7 4 3 6 9 6 13 13 15 19
13 13 12 10 9 9 9 8 8 7 7 7 9 10 11 7 4 6 1 4 9 7 12 12 11 11 2 4 4 4 6 5 5 4 1 2 3 4 4 6 6 1 13 15 16
14 14 13 11 10 9 9 8 8 7 7 7 7 9 7 10 7 3 3 4 9 9 11 8 11 5 4 5 1 7 6 3 2 1 2 2 2 3 3 3 5 6 10 14 15
14 14 12 11 10 10 9 8 7 7 6 6 6 7 9 14 4 3 1 6 9 10 9 8 7 7 9 3 7 4 5 3 4 4 2 3 1 3 6 8 7 8 11 13 14
14 14 13 12 10 10 8 7 7 7 6 5 5 5 10 6 0 2 5 8 7 10 9 3 8 11 7 7 4 4 4 5 7 6 4 10 9 6 5 8 9 10 11 12 12
15 15 13 13 10 9 7 6 6 6 5 4 4 5 7 2 4 7 8 8 7 7 9 4 8 12 10 8 13 8 8 5 8 5 3 10 7 8 6 9 10 11 12 12 14
17 15 13 10 9 6 5 4 4 4 4 3 5 9 6 3 10 13 11 10 10 9 7 6 12 14 9 12 14 8 7 5 1 4 6 4 8 7 10 10 10 11 14 13 14
17 16 13 10 6 3 3 3 3 3 4 6 10 7 6 9 11 11 12 7 8 8 10 11 11 14 13 11 7 7 5 1 5 3 8 11 8 8 13 10 11 12 13 15 16
17 15 13 10 5 4 4 3 5 7 14 7 9 3 7 7 8 12 12 12 10 8 12 13 12 12 13 3 12 7 10 10 7 6 9 11 14 11 10 13 10 11 14 17 17
17 15 12 9 6 8 6 8 8 6 6 14 5 5 3 6 9 11 12 10 10 12 14 11 11 14 8 6 7 11 12 12 3 4 10 12 13 14 5 8 10 13 14 15 18
17 13 9 6 3 7 12 9 4 6 8 8 10 10 11 11 8 14 13 13 8 11 10 13 5 6 7 9 13 13 14 11 9 12 20 8 8 3 6 2 5 9 13 16 17
16 11 6 4 3 7 12 8 7 4 6 10 11 8 7 9 7 4 14 8 5 10 10 10 10 5 8 10 8 14 6 3 8 12 11 11 7 10 5 7 10 12 13 13 16
15 8 5 13 7 7 5 3 5 5 6 12 10 7 11 12 11 9 11 8 13 7 8 5 5 8 9 8 6 12 4 9 11 13 15 15 7 10 8 2 7 5 2 14 15
9 4 9 6 6 2 2 3 7 7 3 9 8 11 14 12 7 11 11 9 4 8 10 11 4 6 8 5 7 10 8 16 18 14 12 9 8 11 10 6 8 5 3 5 12
4 6 17 5 2 4 4 6 7 8 11 10 14 15 17 10 10 13 13 13 10 11 12 15 15 14 9 12 10 10 13 12 7 8 4 10 6 3 9 6 8 5 4 5 10
2 8 6 9 2 2 8 8 9 4 9 10 12 15 13 13 10 11 11 12 10 7 9 10 8 7 8 12 10 13 15 10 4 8 2 7 3 6 7 4 4 9 6 3 7
8 5 7 5 7 5 7 10 6 5 5 10 10 12 7 9 4 9 9 4 8 7 12 5 4 6 6 10 7 7 8 12 11 14 8 9 9 10 9 8 7 10 9 6 3
4 10 9 7 7 8 8 15 3 6 4 9 13 13 11 14 10 8 8 4 1 2 7 4 10 8 7 6 13 14 14 10 9 9 9 2 8 5 10 6 7 8 10 9 8
7 6 9 7 6 7 10 3 3 5 7 5 6 6 5 5 8 4 4 7 2 1 6 12 10 11 7 13 15 10 13 12 13 9 12 12 3 4 5 9 7 10 10 11 12
9 3 11 9 7 9 10 2 4 6 5 2 6 6 2 2 4 3 4 6 2 6 10 7 9 12 16 15 10 9 13 16 13 13 12 8 16 13 5 13 10 11 8 9 11
5 5 9 11 7 8 4 6 3 7 2 3 2 5 2 1 5 4 2 8 3 5 8 11 7 10 12 15 20 7 12 8 12 15 17 14 12 12 10 8 8 9 9 9 11
5 5 5 8 10 13 9 9 8 2 3 1 1 3 5 6 4 3 6 7 1 5 7 5 13 15 13 18 15 13 13 14 15 12 15 15 19 6 12 7 7 9 9 10 10
3 4 5 7 7 6 3 3 6 7 2 2 3 5 5 5 6 8 2 5 8 9 5 8 12 13 14 16 16 18 18 18 19 19 19 19 22 21 20 8 8 8 9 10 11
6 5 1 3 2 7 6 6 6 5 7 6 9 4 4 6 5 8 2 6 7 3 7 7 11 9 15 16 18 16 16 17 17 17 18 18 17 13 14 10 8 10 10 10 11
9 4 5 5 4 7 1 3 1 2 2 5 5 6 7 7 5 9 8 10 9 8 10 11 11 10 12 12 8 14 8 8 8 8 10 10 10 13 13 11 8 8 8 9 10
Wind_Direction
353 342 335 329 329 324 322 321 322 324 324 324 325 328 329 325 316 290 267 39 233 249 269 280 255 268 240 127 260 238 331 57 47 45 89 121 206 176 239 228 253 90 43 121 145
349 343 333 323 319 315 313 315 316 318 319 320 322 326 329 327 307 259 254 243 234 232 267 292 326 301 185 156 63 335 59 34 18 48 80 116 342 154 192 242 123 147 99 125 153
346 343 333 326 320 312 308 309 308 308 313 316 320 323 325 325 272 103 138 204 209 230 277 296 284 274 274 299 45 38 38 5 60 32 32 72 186 259 264 25 248 191 133 151 165
340 338 332 323 317 308 301 299 299 301 305 310 318 319 315 291 262 89 133 244 215 243 278 275 262 279 319 25 69 80 46 11 16 84 349 46 68 248 326 52 30 6 133 160 171
330 329 326 317 314 306 297 293 293 296 300 305 317 321 312 231 251 90 344 227 208 244 262 293 277 297 337 333 138 29 27 347 56 54 309 81 258 317 261 190 139 122 149 166 181
330 327 325 316 310 303 295 290 289 290 292 300 310 315 253 252 71 86 170 178 210 228 245 253 323 1 294 330 351 358 332 26 31 43 181 278 255 257 131 150 152 157 164 169 186
327 324 318 315 307 300 293 288 283 281 283 290 296 311 262 246 130 177 190 202 210 237 261 232 300 284 356 278 17 320 268 169 38 11 10 312 227 182 136 161 162 172 172 166 184
324 320 313 310 301 298 287 279 274 272 269 271 267 273 267 180 236 211 197 201 213 231 268 328 280 279 269 325 256 229 232 231 86 335 25 300 113 112 155 184 183 179 173 174 178
324 321 313 305 297 292 277 267 266 250 240 229 252 231 225 162 207 200 196 202 198 222 232 285 261 267 279 238 245 182 259 53 198 73 317 300 319 155 169 198 211 186 173 183 177
321 316 311 304 298 277 232 204 216 178 233 246 266 254 226 208 170 178 196 228 211 208 226 230 237 246 220 247 293 351 325 301 329 27 318 298 282 288 158 200 217 192 193 187 183
321 314 306 296 281 179 135 174 204 194 219 293 150 294 127 126 162 193 189 212 232 219 227 198 235 234 240 304 2 318 273 285 288 48 292 303 297 287 265 182 213 220 200 188 199
321 313 302 285 250 189 214 245 21 347 224 217 227 258 223 186 183 188 190 215 207 234 210 220 227 254 296 329 268 267 263 265 310 258 300 293 296 269 279 237 199 201 224 209 190
323 312 298 276 190 196 219 241 302 311 258 162 197 204 181 211 212 177 199 217 238 233 219 253 309 5 300 250 247 247 260 284 332 318 281 250 278 153 140 185 202 228 215 210 202
323 305 280 149 185 193 222 222 238 296 255 140 187 204 178 231 209 129 190 227 230 258 229 261 254 216 243 248 244 264 218 312 285 286 312 305 295 122 158 205 206 214 199 215 201
320 296 212 164 319 214 81 198 223 239 242 142 134 120 192 217 118 177 190 206 255 203 251 106 226 213 242 251 237 273 21 291 284 274 277 269 246 128 186 32 348 351 238 179 192
310 270 161 192 233 289 205 173 197 233 187 149 139 177 176 216 177 140 178 251 292 244 224 278 226 244 268 250 249 274 280 260 244 248 255 80 293 159 107 27 12 13 175 162 178
280 179 164 196 91 174 224 206 220 258 133 152 175 163 191 180 152 173 195 200 231 214 210 197 215 207 228 247 211 230 253 263 226 243 108 90 283 101 98 48 16 49 132 167 165
183 156 218 195 244 241 202 226 253 48 203 148 150 176 205 165 165 189 179 217 212 284 296 281 159 174 179 233 262 202 250 295 316 312 26 167 247 93 81 146 36 83 77 151 188
125 172 201 207 205 211 237 225 242 205 80 179 184 188 174 178 276 213 230 313 37 347 314 325 156 126 210 203 249 174 244 273 313 288 240 256 129 197 149 193 119 88 73 100 211
245 197 147 172 193 227 243 258 76 359 290 276 196 214 181 181 216 223 170 80 104 327 304 346 287 182 116 236 238 263 312 285 242 260 286 54 278 200 185 120 56 62 62 43 43
261 199 139 174 204 233 235 118 150 151 260 277 262 192 294 146 275 177 97 101 271 22 296 307 287 278 186 229 257 180 232 224 253 288 308 291 60 35 263 87 59 55 36 28 26
274 191 154 183 218 229 247 53 11 157 197 205 320 351 325 115 230 255 290 74 27 318 296 352 309 291 289 298 284 270 287 291 282 277 263 296 298 103 57 78 65 61 36 39 24
260 102 171 211 242 202 100 156 308 200 232 204 167 322 302 255 290 261 22 97 359 305 355 1 271 290 272 247 219 216 273 247 280 283 282 289 279 106 74 63 71 64 32 41 28
280 163 156 210 274 287 162 190 147 13 117 6 115 260 242 237 192 291 241 142 274 331 26 308 267 264 281 307 323 305 289 277 288 281 287 281 298 321 112 311 13 41 30 25 31
256 28 10 205 195 262 215 169 206 172 168 255 178 294 314 286 254 244 275 277 199 121 235 253 278 290 289 298 297 290 284 280 273 276 276 288 294 299 313 69 20 29 21 24 26
327 334 228 348 151 252 146 209 243 112 297 169 271 118 293 280 324 327 310 273 279 147 253 280 284 279 280 277 262 275 284 280 279 276 273 277 278 359 10 30 21 8 23 17 12
359 322 281 118 236 234 93 88 229 29 132 12 345 277 227 27 5 322 303 293 277 266 279 282 283 285 280 292 305 273 305 307 290 314 312 297 34 17 350 360 15 1 14 13 5